STARLINK-36695, 67702

Orbit data source: Space-Track

STARLINK-36695, 67702 is a payload satellite owned by SpaceX/Seattle (US) in SSO that was launched on Sat, 07 Feb 2026 UTC via an FALCON 9 launch vehicle from the Air Force Western Test Range (AFWTR). Payload-class satellites include a variety of spacecraft equipped with specific instruments for various scientific and technological missions. These include communications satellites like Starlink; space stations such as the ISS; scientific satellites like the Hubble; Earth observation satellites from companies like Planet Labs, Umbra, and HawkEye 360; GPS; miniature CubeSats for education and research; and military/defense satellites.

Loading next visibility...
Identifier
67702, 2026-025K
Orbit
SSO
Country
Flag of USUS
Related business
Manufacturer
SpaceX/Seattle
Mission
Operational spacecraft
Bus & Motor
STARLINK V2MO, Unknown motor
Mass
575 kg wet, ~530 kg dry
Launch date (UTC)
2026-02-07 (2 months ago)
Launch vehicle
FALCON 9
Launch site
Air Force Western Test Range (AFWTR)
Object type
Payload
Rocket body
Debris
Shape & HBR
Unknown shape, 17.7 m
Radar Cross Section
RCS unknown

Expand to show TLE details & history
Last TLE update: 14 hours ago

TLE from 14 hours ago
0 STARLINK-36695
1 67702U 26025K   26103.78413753  .00024860  00000-0  76971-3 0  9990
2 67702  97.2858 216.0171 0000860 100.0078 260.1262 15.33449820 11393
Epoch: 2026-04-13T18:49Z
TLE epoch observation values (Epoch: 2026-04-13T18:49:09.482Z)
Latitude
-0.00001°
Longitude
91.75782°
Altitude
468.742 km
Speed
7.632 km/s
True Right ascension
14h 24m 04s
True Declination
0° 00' 00"
Sunlit
Object was in full shadow at epoch
Visualization orbit readout
Latitude
Unknown
Longitude
Unknown
Altitude
Unknown
Speed
Unknown
Apparent Right ascension
Unknown
Apparent Declination
Unknown
Sunlit
N/A
Visualization observer readout
Local Sidereal Time
15:08:21
Azimuth
Unknown
Elevation
Unknown
Doppler factor
Unknown
Orbital elements
Apogee altitude
463.06 km
Perigee altitude
461.883 km
Semi-major axis
6,840.609 km
Eccentricity
0.00009
Inclination
97.2858°
RAAN
216.0171°
Arg. of periapsis
100.0078°
True anomaly
260.11649°
Mean anomaly
260.1262°
Eccentric anomaly
260.12135°
Mean motion
3.8362 °/min
Orbital period
93.84 mins
BSTAR
0.00076971
Loading maneuver chart data...
Computing Atmospheric mass density...
Loading historical data...
Loading historical data...
Loading historical data...
Loading historical data...
Loading historical data...
Loading historical data...
Loading historical data...

Documentation

Showing up to 5 results
|